Terug naar catalogus

STARLINK-32459

ActiefCommunicatieVLEO
NORAD 61715·PAYLOAD·🇺🇸 United States

Gelanceerd Oct 30, 2024 vanaf Cape Canaveral Space Force Station

Loading…

Volgende Passages (komende 24 uur)

TLE

VersSource: CelesTrak SupGP

Epoch: Sep 14, 2026, 21:20 UTC

1 61715C 24196J   26257.88937500  .00014476  00000+0  42781-3 0  2577
2 61715  53.1593 299.9732 0001196  91.3801 133.7899 15.34374788    19

Volg STARLINK-32459 in realtime met AllMySat

Download on the App Store